{"data":{"norad_id":63448,"epoch":"2026-05-24T23:31:49.767168Z","epoch_age_seconds":90433,"freshness":"FRESH","line1":"1 63448U 25069R   26144.98043712  .00035992  00000+0  83193-3 0  9992","line2":"2 63448  53.1583 145.3819 0001619  90.0911 270.0281 15.42185620 65061","mean_motion":15.4218562,"eccentricity":0.0001619,"inclination_deg":53.1583,"raan_deg":145.3819,"arg_perigee_deg":90.0911,"mean_anomaly_deg":270.0281,"bstar":0.00083193,"rev_number":6506,"period_min":93.373974009692,"perigee_km":438.55634288968,"apogee_km":440.76394560499,"semimajor_km":6817.7971442473,"source":"CELESTRAK","updated_at":"2026-05-25T13:38:20.001123Z"}}